Location: Barrio de Buenos Aires
(28.4500°N, 16.2667°W)
Time: 03:19:39
(UTC+00:00)

CENTAUR R/B - Pass Details

Date: 24 January 2020
Orbit: 766 x 1422 km, 63.5° (Epoch: 07 February)

Event Time Altitude Azimuth Distance (km) Brightness Sun altitude
Rises 20:30:52 0° 186° (S) 3,261 5.4 -24.8°
Reaches altitude 10° 20:33:19 10° 177° (S) 2,379 4.6 -25.3°
Enters shadow 20:35:48 25° 158° (SSE) 1,623 3.5 -25.8°
